Hourly Weather Golanki

Today, 13 May, Thursday

Time Temperature Precipitation Wind Pressure Humidity
00:00 +8°C° 0 mm 4 mps 745 mmHg 82%
01:00 +8°C° 0 mm 3 mps 744 mmHg 85%
02:00 +8°C° 0 mm 3 mps 744 mmHg 85%
03:00 +7°C° 0 mm 3 mps 743 mmHg 86%
04:00 +5°C° 0 mm 3 mps 743 mmHg 86%
05:00 +8°C° 0 mm 3 mps 743 mmHg 80%
06:00 +10°C° 0 mm 3 mps 742 mmHg 75%
07:00 +12°C° 0 mm 4 mps 742 mmHg 69%
08:00 +13°C° 0 mm 4 mps 742 mmHg 65%
09:00 +14°C° 0 mm 4 mps 741 mmHg 61%
10:00 +17°C° 0 mm 4 mps 741 mmHg 56%
11:00 +17°C° 0 mm 3 mps 740 mmHg 56%
12:00 +17°C° 0 mm 3 mps 740 mmHg 55%
13:00 +18°C° 0 mm 3 mps 739 mmHg 55%
14:00 +17°C° 0 mm 3 mps 739 mmHg 59%
15:00 +17°C° 0 mm 3 mps 739 mmHg 63%
16:00 +15°C° 0 mm 4 mps 739 mmHg 67%
17:00 +14°C° 0 mm 3 mps 738 mmHg 72%
18:00 +13°C° 0 mm 3 mps 738 mmHg 78%
19:00 +11°C° 0 mm 3 mps 738 mmHg 83%
20:00 +11°C° 0 mm 3 mps 738 mmHg 86%
21:00 +12°C° 0 mm 2 mps 738 mmHg 88%
22:00 +10°C° 0 mm 2 mps 738 mmHg 90%
23:00 +10°C° 0 mm 2 mps 738 mmHg 92%

Tomorrow, 14 May, Friday

Time Temperature Precipitation Wind Pressure Humidity
00:00 +10°C° 0 mm 2 mps 738 mmHg 93%
01:00 +10°C° 0 mm 2 mps 738 mmHg 94%
02:00 +11°C° 0 mm 1 mps 738 mmHg 95%
03:00 +11°C° 0 mm 1 mps 738 mmHg 95%
04:00 +11°C° 0 mm 1 mps 737 mmHg 96%
05:00 +12°C° 0 mm 1 mps 738 mmHg 94%
06:00 +13°C° 0 mm 1 mps 738 mmHg 91%
07:00 +14°C° 0 mm 1 mps 738 mmHg 88%
08:00 +15°C° 0.2 mm 1 mps 738 mmHg 83%
09:00 +16°C° 0.2 mm 1 mps 739 mmHg 78%
10:00 +17°C° 0.2 mm 2 mps 739 mmHg 73%
11:00 +18°C° 0.8 mm 2 mps 739 mmHg 71%
12:00 +19°C° 0.8 mm 2 mps 739 mmHg 68%
13:00 +19°C° 0.8 mm 2 mps 739 mmHg 65%
14:00 +19°C° 1.1 mm 3 mps 740 mmHg 69%
15:00 +18°C° 1.1 mm 3 mps 740 mmHg 73%
16:00 +17°C° 1.1 mm 3 mps 740 mmHg 76%
17:00 +16°C° 0.3 mm 3 mps 740 mmHg 81%
18:00 +14°C° 0.3 mm 4 mps 741 mmHg 85%
19:00 +13°C° 0.3 mm 4 mps 741 mmHg 89%
20:00 +12°C° 0 mm 3 mps 741 mmHg 92%
21:00 +11°C° 0 mm 3 mps 742 mmHg 94%
22:00 +10°C° 0 mm 3 mps 742 mmHg 96%
23:00 +10°C° 0 mm 3 mps 742 mmHg 97%

Day after tomorrow, 15 May, Saturday

Time Temperature Precipitation Wind Pressure Humidity
00:00 +10°C° 0 mm 3 mps 743 mmHg 97%
01:00 +9°C° 0 mm 3 mps 743 mmHg 97%
02:00 +10°C° 0 mm 3 mps 743 mmHg 97%
03:00 +10°C° 0 mm 3 mps 743 mmHg 96%
04:00 +10°C° 0 mm 3 mps 743 mmHg 96%
05:00 +10°C° 0 mm 3 mps 744 mmHg 95%
06:00 +11°C° 0 mm 3 mps 744 mmHg 93%
07:00 +11°C° 0 mm 3 mps 744 mmHg 92%
08:00 +11°C° 0 mm 3 mps 744 mmHg 89%
09:00 +12°C° 0 mm 3 mps 745 mmHg 86%
10:00 +13°C° 0 mm 3 mps 745 mmHg 83%
11:00 +13°C° 0.1 mm 3 mps 745 mmHg 81%
12:00 +14°C° 0.1 mm 3 mps 745 mmHg 78%
13:00 +14°C° 0.1 mm 3 mps 745 mmHg 75%
14:00 +16°C° 0.1 mm 2 mps 745 mmHg 73%
15:00 +16°C° 0.1 mm 2 mps 745 mmHg 71%
16:00 +17°C° 0.1 mm 2 mps 745 mmHg 69%
17:00 +16°C° 0 mm 1 mps 745 mmHg 73%
18:00 +15°C° 0 mm 1 mps 745 mmHg 77%
19:00 +12°C° 0 mm 0 mps 745 mmHg 81%
20:00 +13°C° 0 mm 1 mps 745 mmHg 84%
21:00 +12°C° 0 mm 1 mps 745 mmHg 86%
22:00 +10°C° 0 mm 2 mps 745 mmHg 88%
23:00 +10°C° 0 mm 2 mps 745 mmHg 89%

16 May, Sunday

Time Temperature Precipitation Wind Pressure Humidity
00:00 +9°C° 0 mm 2 mps 745 mmHg 90%
01:00 +9°C° 0 mm 2 mps 745 mmHg 91%
02:00 +9°C° 0 mm 2 mps 745 mmHg 92%
03:00 +9°C° 0 mm 2 mps 745 mmHg 93%
04:00 +8°C° 0 mm 3 mps 744 mmHg 93%
05:00 +10°C° 0 mm 3 mps 744 mmHg 88%
06:00 +12°C° 0 mm 3 mps 744 mmHg 83%
07:00 +13°C° 0 mm 3 mps 744 mmHg 78%
08:00 +15°C° 0 mm 4 mps 744 mmHg 73%
09:00 +17°C° 0 mm 4 mps 744 mmHg 69%
10:00 +19°C° 0 mm 5 mps 744 mmHg 64%
11:00 +19°C° 0.2 mm 5 mps 744 mmHg 67%
12:00 +19°C° 0.2 mm 5 mps 743 mmHg 70%
13:00 +19°C° 0.2 mm 5 mps 743 mmHg 73%
14:00 +19°C° 0.7 mm 5 mps 742 mmHg 76%
15:00 +19°C° 0.7 mm 5 mps 742 mmHg 78%
16:00 +19°C° 0.7 mm 5 mps 742 mmHg 81%
17:00 +17°C° 1.1 mm 5 mps 741 mmHg 83%
18:00 +15°C° 1.1 mm 5 mps 741 mmHg 86%
19:00 +14°C° 1.1 mm 5 mps 741 mmHg 88%
20:00 +13°C° 0.5 mm 4 mps 741 mmHg 91%
21:00 +13°C° 0.5 mm 3 mps 741 mmHg 93%
22:00 +13°C° 0.5 mm 2 mps 741 mmHg 96%
23:00 +13°C° 0 mm 2 mps 741 mmHg 96%

17 May, Monday

Time Temperature Precipitation Wind Pressure Humidity
00:00 +13°C° 0 mm 2 mps 741 mmHg 96%
01:00 +12°C° 0 mm 2 mps 741 mmHg 97%
02:00 +12°C° 0.2 mm 2 mps 741 mmHg 97%
03:00 +12°C° 0.2 mm 2 mps 741 mmHg 97%
04:00 +12°C° 0.2 mm 2 mps 741 mmHg 98%
05:00 +12°C° 1.2 mm 2 mps 741 mmHg 98%
06:00 +11°C° 1.2 mm 3 mps 741 mmHg 97%
07:00 +11°C° 1.2 mm 4 mps 741 mmHg 97%
08:00 +11°C° 0.5 mm 3 mps 741 mmHg 96%
09:00 +11°C° 0.5 mm 3 mps 741 mmHg 94%
10:00 +12°C° 0.5 mm 3 mps 741 mmHg 92%
11:00 +13°C° 0.1 mm 3 mps 741 mmHg 85%
12:00 +14°C° 0.1 mm 3 mps 741 mmHg 78%
13:00 +17°C° 0.1 mm 4 mps 742 mmHg 71%
14:00 +17°C° 0.1 mm 3 mps 741 mmHg 70%
15:00 +17°C° 0.1 mm 3 mps 741 mmHg 69%
16:00 +17°C° 0.1 mm 2 mps 741 mmHg 68%
17:00 +16°C° 0 mm 2 mps 741 mmHg 72%
18:00 +15°C° 0 mm 1 mps 741 mmHg 77%
19:00 +13°C° 0 mm 0 mps 741 mmHg 82%
20:00 +13°C° 0 mm 1 mps 741 mmHg 84%
21:00 +12°C° 0 mm 1 mps 741 mmHg 85%
22:00 +11°C° 0 mm 1 mps 742 mmHg 87%
23:00 +11°C° 0 mm 1 mps 742 mmHg 88%

18 May, Tuesday

Time Temperature Precipitation Wind Pressure Humidity
00:00 +11°C° 0 mm 1 mps 742 mmHg 89%
01:00 +10°C° 0 mm 1 mps 742 mmHg 89%
02:00 +10°C° 0 mm 1 mps 742 mmHg 90%
03:00 +10°C° 0 mm 1 mps 742 mmHg 90%
04:00 +10°C° 0 mm 1 mps 742 mmHg 90%
05:00 +12°C° 0 mm 2 mps 742 mmHg 87%
06:00 +13°C° 0 mm 2 mps 742 mmHg 83%
07:00 +14°C° 0 mm 3 mps 742 mmHg 80%
08:00 +15°C° 0.4 mm 4 mps 742 mmHg 78%
09:00 +15°C° 0.4 mm 4 mps 742 mmHg 76%
10:00 +16°C° 0.4 mm 5 mps 742 mmHg 75%
11:00 +17°C° 0.6 mm 5 mps 741 mmHg 75%
12:00 +17°C° 0.6 mm 5 mps 741 mmHg 74%
13:00 +17°C° 0.6 mm 6 mps 741 mmHg 74%
14:00 +16°C° 1.1 mm 5 mps 740 mmHg 80%
15:00 +14°C° 1.1 mm 5 mps 740 mmHg 86%
16:00 +13°C° 1.1 mm 5 mps 740 mmHg 92%
17:00 +12°C° 1.5 mm 5 mps 739 mmHg 93%
18:00 +12°C° 1.5 mm 5 mps 739 mmHg 95%
19:00 +12°C° 1.5 mm 5 mps 738 mmHg 96%
20:00 +12°C° 3 mm 4 mps 738 mmHg 97%
21:00 +12°C° 3 mm 4 mps 737 mmHg 97%
22:00 +12°C° 3 mm 3 mps 737 mmHg 98%
23:00 +12°C° 1.1 mm 4 mps 736 mmHg 98%
Show more